This is the latest recevied weather packets stored in our database for station/object K3SV. If no packets are shown the sender has not sent any weather packets the latest 1 day(s).
| Time | Temp. | Humidity | Pressure | Rain* | Wind** | Luminosity | Snow |
|---|---|---|---|---|---|---|---|
| 1778075215 | 25.56° C | 81% | 1017.3 hPa | 0 mm | - | 347 W/m² | - |
| 1778074609 | 25.56° C | 81% | 1017.3 hPa | 0 mm | - | 277 W/m² | - |
| 1778074003 | 24.44° C | 83% | 1017.2 hPa | 0 mm | - | 270 W/m² | - |
| 1778072488 | 23.89° C | 86% | 1017.1 hPa | 0 mm | - | 209 W/m² | - |
| 1778072186 | 23.89° C | 86% | 1016.9 hPa | 0 mm | - | 231 W/m² | - |
| 1778071581 | 23.33° C | 87% | 1016.9 hPa | 0 mm | - | 195 W/m² | - |
| 1778070976 | 23.33° C | 86% | 1016.7 hPa | 0 mm | - | 183 W/m² | - |
| 1778067649 | 17.78° C | 94% | 1016.3 hPa | 0 mm | - | 42 W/m² | - |
| 1778066740 | 17.22° C | 95% | 1016.4 hPa | 0 mm | - | 21 W/m² | - |
| 1778065530 | 17.22° C | 94% | 1016.1 hPa | 0 mm | - | 10 W/m² | - |
| 1778065227 | 17.22° C | 94% | 1016.1 hPa | 0 mm | - | 8 W/m² | - |
| 1778064923 | 17.22° C | 94% | 1015.9 hPa | 0 mm | - | 6 W/m² | - |
| 1778064620 | 17.22° C | 94% | 1015.8 hPa | 0 mm | - | 3 W/m² | - |
| 1778064318 | 17.22° C | 94% | 1015.9 hPa | 0 mm | - | 2 W/m² | - |
| 1778063713 | 17.22° C | 93% | 1015.9 hPa | 0 mm | - | 0 W/m² | - |
| 1778063108 | 17.78° C | 93% | 1015.7 hPa | 0 mm | - | 0 W/m² | - |
| 1778062805 | 17.78° C | 92% | 1015.6 hPa | 0 mm | - | 0 W/m² | - |
| 1778062501 | 17.78° C | 93% | 1015.5 hPa | 0 mm | - | 0 W/m² | - |
| 1778062199 | 17.78° C | 93% | 1015.5 hPa | 0 mm | - | 0 W/m² | - |
| 1778061897 | 17.78° C | 93% | 1015.6 hPa | 0 mm | - | 0 W/m² | - |
| 1778061293 | 17.78° C | 93% | 1015.6 hPa | 0 mm | - | 0 W/m² | - |
| 1778060687 | 17.78° C | 92% | 1015.5 hPa | 0 mm | - | 0 W/m² | - |
| 1778059780 | 18.33° C | 90% | 1015.6 hPa | 0 mm | - | 0 W/m² | - |
| 1778059478 | 18.33° C | 90% | 1015.7 hPa | 0 mm | - | 0 W/m² | - |
| 1778059174 | 18.33° C | 90% | 1015.7 hPa | 0 mm | - | 0 W/m² | - |
* Rain latest hour (hover to see other rain measurements)
** Current wind speed in m/s (hover to see current wind gust speed)